Location: Davidschlag
(48.4333°N, 14.2833°E)
Time: 04:34:43
(UTC+00:00)

Cosmos 2221 Rocket - Pass Details

Date: 27 February 2020
Orbit: 619 x 649 km, 82.5° (Epoch: 29 March)

Event Time Altitude Azimuth Distance (km) Brightness Sun altitude
Rises 18:18:51 0° 353° (N) 2,960 7.2 -16.7°
Reaches altitude 10° 18:21:09 10° 357° (N) 2,041 6.3 -17.1°
Maximum altitude 18:25:38 60° 78° (ENE) 731 3.6 -17.8°
Enters shadow 18:28:33 21° 153° (SSE) 1,442 5.1 -18.3°
